When you browse on this site, cookies collect data to enhance your experience and personalize the content and advertising you see.
Visit our Privacy Policy to learn more. By continuing to use the site, you agree to this use of cookies and data.

Hourly Weather Socialisticheskiy

Today, 9 July, Thursday

Time Temperature Precipitation Wind Pressure Humidity
00:00 +15°C° 0.6 mm 7 mps 734 mmHg 96%
01:00 +14°C° 1.2 mm 6 mps 734 mmHg 96%
02:00 +14°C° 1.2 mm 5 mps 734 mmHg 95%
03:00 +13°C° 0 mm 4 mps 735 mmHg 93%
04:00 +13°C° 0.2 mm 4 mps 735 mmHg 93%
05:00 +12°C° 0.2 mm 5 mps 735 mmHg 93%
06:00 +12°C° 0.2 mm 5 mps 736 mmHg 93%
07:00 +13°C° 0 mm 5 mps 736 mmHg 90%
08:00 +14°C° 0 mm 5 mps 736 mmHg 87%
09:00 +15°C° 0 mm 5 mps 737 mmHg 83%
10:00 +16°C° 0 mm 5 mps 737 mmHg 79%
11:00 +17°C° 0 mm 5 mps 738 mmHg 75%
12:00 +20°C° 0 mm 4 mps 738 mmHg 71%
13:00 +20°C° 0 mm 4 mps 738 mmHg 69%
14:00 +20°C° 0 mm 4 mps 739 mmHg 67%
15:00 +21°C° 0 mm 3 mps 739 mmHg 64%
16:00 +20°C° 0.2 mm 3 mps 739 mmHg 68%
17:00 +20°C° 0.2 mm 4 mps 739 mmHg 72%
18:00 +19°C° 0.2 mm 4 mps 739 mmHg 75%
19:00 +18°C° 0 mm 3 mps 739 mmHg 79%
20:00 +16°C° 0 mm 3 mps 739 mmHg 84%
21:00 +15°C° 0 mm 2 mps 739 mmHg 88%
22:00 +15°C° 0 mm 2 mps 740 mmHg 89%
23:00 +13°C° 0 mm 3 mps 740 mmHg 91%

Tomorrow, 10 July, Friday

Time Temperature Precipitation Wind Pressure Humidity
00:00 +12°C° 0 mm 3 mps 741 mmHg 92%
01:00 +12°C° 0 mm 3 mps 741 mmHg 93%
02:00 +11°C° 0 mm 3 mps 741 mmHg 93%
03:00 +12°C° 0 mm 2 mps 741 mmHg 93%
04:00 +12°C° 0 mm 2 mps 742 mmHg 92%
05:00 +12°C° 0 mm 2 mps 742 mmHg 90%
06:00 +12°C° 0 mm 2 mps 742 mmHg 89%
07:00 +14°C° 0 mm 2 mps 743 mmHg 83%
08:00 +16°C° 0 mm 2 mps 743 mmHg 77%
09:00 +17°C° 0 mm 3 mps 743 mmHg 71%
10:00 +18°C° 0 mm 3 mps 743 mmHg 68%
11:00 +19°C° 0 mm 3 mps 743 mmHg 65%
12:00 +20°C° 0 mm 3 mps 744 mmHg 62%
13:00 +20°C° 0 mm 3 mps 744 mmHg 61%
14:00 +21°C° 0 mm 3 mps 743 mmHg 60%
15:00 +21°C° 0 mm 3 mps 743 mmHg 60%
16:00 +21°C° 0 mm 3 mps 743 mmHg 63%
17:00 +21°C° 0 mm 3 mps 743 mmHg 66%
18:00 +21°C° 0 mm 3 mps 743 mmHg 69%
19:00 +19°C° 0 mm 3 mps 743 mmHg 73%
20:00 +18°C° 0 mm 3 mps 744 mmHg 77%
21:00 +17°C° 0 mm 3 mps 744 mmHg 80%
22:00 +16°C° 0 mm 3 mps 744 mmHg 81%
23:00 +14°C° 0 mm 3 mps 744 mmHg 82%

Day after tomorrow, 11 July, Saturday

Time Temperature Precipitation Wind Pressure Humidity
00:00 +14°C° 0 mm 3 mps 744 mmHg 82%
01:00 +14°C° 0 mm 3 mps 744 mmHg 84%
02:00 +13°C° 0 mm 3 mps 744 mmHg 85%
03:00 +13°C° 0 mm 3 mps 744 mmHg 86%
04:00 +13°C° 0 mm 3 mps 744 mmHg 85%
05:00 +14°C° 0 mm 3 mps 744 mmHg 85%
06:00 +14°C° 0 mm 3 mps 744 mmHg 84%
07:00 +17°C° 0 mm 4 mps 744 mmHg 81%
08:00 +18°C° 0 mm 4 mps 744 mmHg 78%
09:00 +20°C° 0 mm 4 mps 745 mmHg 75%
10:00 +21°C° 0 mm 5 mps 744 mmHg 73%
11:00 +22°C° 0 mm 5 mps 744 mmHg 71%
12:00 +25°C° 0 mm 5 mps 744 mmHg 69%
13:00 +25°C° 0 mm 5 mps 744 mmHg 69%
14:00 +25°C° 0 mm 5 mps 744 mmHg 69%
15:00 +26°C° 0 mm 5 mps 744 mmHg 69%
16:00 +26°C° 0 mm 5 mps 744 mmHg 71%
17:00 +25°C° 0 mm 4 mps 743 mmHg 74%
18:00 +25°C° 0 mm 4 mps 743 mmHg 76%
19:00 +24°C° 0 mm 3 mps 743 mmHg 80%
20:00 +21°C° 0 mm 3 mps 743 mmHg 85%
21:00 +20°C° 0 mm 3 mps 743 mmHg 89%
22:00 +19°C° 0 mm 3 mps 743 mmHg 89%
23:00 +19°C° 0 mm 3 mps 743 mmHg 89%

12 July, Sunday

Time Temperature Precipitation Wind Pressure Humidity
00:00 +18°C° 0 mm 3 mps 743 mmHg 89%
01:00 +18°C° 0 mm 3 mps 743 mmHg 89%
02:00 +17°C° 0 mm 3 mps 743 mmHg 89%
03:00 +17°C° 0 mm 3 mps 743 mmHg 89%
04:00 +17°C° 0 mm 2 mps 742 mmHg 88%
05:00 +17°C° 0 mm 2 mps 742 mmHg 87%
06:00 +18°C° 0 mm 2 mps 742 mmHg 87%
07:00 +19°C° 0 mm 2 mps 742 mmHg 82%
08:00 +21°C° 0 mm 2 mps 742 mmHg 77%
09:00 +23°C° 0 mm 2 mps 742 mmHg 72%
10:00 +24°C° 0 mm 2 mps 742 mmHg 69%
11:00 +25°C° 0 mm 3 mps 742 mmHg 66%
12:00 +26°C° 0 mm 3 mps 742 mmHg 63%
13:00 +27°C° 0 mm 3 mps 741 mmHg 63%
14:00 +27°C° 0 mm 3 mps 741 mmHg 62%
15:00 +27°C° 0 mm 3 mps 741 mmHg 61%
16:00 +27°C° 0 mm 2 mps 741 mmHg 64%
17:00 +27°C° 0 mm 2 mps 740 mmHg 66%
18:00 +26°C° 0 mm 2 mps 740 mmHg 69%
19:00 +24°C° 0 mm 2 mps 740 mmHg 72%
20:00 +23°C° 0 mm 1 mps 740 mmHg 75%
21:00 +21°C° 0 mm 1 mps 739 mmHg 78%
22:00 +20°C° 0 mm 1 mps 739 mmHg 78%
23:00 +20°C° 0 mm 1 mps 739 mmHg 78%

13 July, Monday

Time Temperature Precipitation Wind Pressure Humidity
00:00 +19°C° 0 mm 1 mps 739 mmHg 78%
01:00 +18°C° 0 mm 1 mps 738 mmHg 80%
02:00 +18°C° 0 mm 1 mps 738 mmHg 81%
03:00 +15°C° 0 mm 0 mps 738 mmHg 83%
04:00 +18°C° 0 mm 1 mps 738 mmHg 83%
05:00 +18°C° 0 mm 1 mps 737 mmHg 82%
06:00 +19°C° 0 mm 1 mps 737 mmHg 82%
07:00 +20°C° 0 mm 1 mps 737 mmHg 78%
08:00 +21°C° 0 mm 2 mps 737 mmHg 74%
09:00 +23°C° 0 mm 2 mps 737 mmHg 70%
10:00 +24°C° 0 mm 2 mps 737 mmHg 68%
11:00 +25°C° 0 mm 2 mps 737 mmHg 66%
12:00 +27°C° 0 mm 3 mps 737 mmHg 64%
13:00 +27°C° 0 mm 3 mps 736 mmHg 65%
14:00 +27°C° 0 mm 3 mps 736 mmHg 66%
15:00 +27°C° 0 mm 3 mps 735 mmHg 67%
16:00 +26°C° 3.1 mm 3 mps 735 mmHg 74%
17:00 +25°C° 3.1 mm 2 mps 735 mmHg 81%
18:00 +24°C° 3.1 mm 2 mps 734 mmHg 89%
19:00 +22°C° 3.2 mm 3 mps 734 mmHg 90%
20:00 +21°C° 3.2 mm 4 mps 734 mmHg 91%
21:00 +20°C° 3.2 mm 5 mps 734 mmHg 92%
22:00 +20°C° 0.1 mm 4 mps 733 mmHg 92%
23:00 +19°C° 0.1 mm 4 mps 733 mmHg 93%

14 July, Tuesday

Time Temperature Precipitation Wind Pressure Humidity
00:00 +19°C° 0.1 mm 3 mps 733 mmHg 94%
01:00 +19°C° 0.4 mm 3 mps 733 mmHg 95%
02:00 +19°C° 0.4 mm 3 mps 732 mmHg 95%
03:00 +19°C° 0.4 mm 3 mps 732 mmHg 96%
04:00 +19°C° 0.7 mm 3 mps 732 mmHg 96%
05:00 +19°C° 0.7 mm 3 mps 732 mmHg 97%
06:00 +20°C° 0.7 mm 3 mps 731 mmHg 97%
07:00 +20°C° 0 mm 4 mps 731 mmHg 96%
08:00 +20°C° 0 mm 4 mps 731 mmHg 95%
09:00 +20°C° 0 mm 5 mps 731 mmHg 94%
10:00 +20°C° 0.2 mm 4 mps 731 mmHg 94%
11:00 +20°C° 0.2 mm 4 mps 731 mmHg 94%
12:00 +20°C° 0.2 mm 3 mps 731 mmHg 94%
13:00 +21°C° 0.5 mm 3 mps 731 mmHg 90%
14:00 +22°C° 0.5 mm 4 mps 731 mmHg 86%
15:00 +23°C° 0.5 mm 4 mps 730 mmHg 82%
16:00 +23°C° 0.5 mm 4 mps 730 mmHg 84%
17:00 +24°C° 0.5 mm 3 mps 730 mmHg 85%
18:00 +24°C° 0.5 mm 3 mps 730 mmHg 87%
19:00 +22°C° 0.3 mm 3 mps 730 mmHg 89%
20:00 +20°C° 0.3 mm 3 mps 730 mmHg 91%
21:00 +19°C° 0.3 mm 3 mps 730 mmHg 94%
22:00 +18°C° 0 mm 3 mps 730 mmHg 94%
23:00 +17°C° 0 mm 3 mps 730 mmHg 95%
Show more